TimePDT,TemperatureF,Dew PointF,Humidity,Sea Level PressureIn,VisibilityMPH,Wind Direction,Wind SpeedMPH,Gust SpeedMPH,PrecipitationIn,Events,Conditions,WindDirDegrees,DateUTC
12:53 AM,59.0,51.1,75,30.01,10.0,Calm,Calm,-,N/A,,Partly Cloudy,0,2013-09-18 07:53:00
1:53 AM,57.0,50.0,77,30.03,10.0,WSW,3.5,-,N/A,,Scattered Clouds,240,2013-09-18 08:53:00
2:53 AM,59.0,50.0,72,30.03,10.0,Calm,Calm,-,N/A,,Overcast,0,2013-09-18 09:53:00
3:53 AM,55.9,50.0,80,30.04,10.0,Calm,Calm,-,N/A,,Mostly Cloudy,0,2013-09-18 10:53:00
4:53 AM,57.0,51.1,81,30.05,10.0,Calm,Calm,-,N/A,,Mostly Cloudy,0,2013-09-18 11:53:00
5:53 AM,57.0,52.0,83,30.06,10.0,Calm,Calm,-,N/A,,Scattered Clouds,0,2013-09-18 12:53:00
6:53 AM,57.0,52.0,83,30.07,10.0,SSE,3.5,-,N/A,,Mostly Cloudy,160,2013-09-18 13:53:00
7:53 AM,57.9,53.1,84,30.08,10.0,Calm,Calm,-,N/A,,Overcast,0,2013-09-18 14:53:00
8:53 AM,60.1,53.1,78,30.09,10.0,Calm,Calm,-,N/A,,Partly Cloudy,0,2013-09-18 15:53:00
9:53 AM,62.1,51.1,67,30.09,10.0,Calm,Calm,-,N/A,,Overcast,0,2013-09-18 16:53:00
10:53 AM,64.0,51.1,63,30.10,10.0,West,5.8,-,N/A,,Mostly Cloudy,280,2013-09-18 17:53:00
11:53 AM,66.0,48.9,54,30.09,10.0,Variable,4.6,-,N/A,,Clear,0,2013-09-18 18:53:00
12:53 PM,66.9,48.0,51,30.08,10.0,Calm,Calm,-,N/A,,Scattered Clouds,0,2013-09-18 19:53:00
1:53 PM,70.0,48.0,46,30.07,10.0,SW,5.8,-,N/A,,Scattered Clouds,220,2013-09-18 20:53:00
2:53 PM,69.1,46.0,44,30.06,10.0,Calm,Calm,-,N/A,,Overcast,0,2013-09-18 21:53:00
3:53 PM,72.0,45.0,38,30.05,10.0,Calm,Calm,-,N/A,,Mostly Cloudy,0,2013-09-18 22:53:00
4:53 PM,71.1,46.0,41,30.04,10.0,East,4.6,-,N/A,,Mostly Cloudy,80,2013-09-18 23:53:00
5:53 PM,70.0,46.0,42,30.04,10.0,Calm,Calm,-,N/A,,Clear,0,2013-09-19 00:53:00
6:53 PM,68.0,46.0,45,30.03,10.0,Calm,Calm,-,N/A,,Clear,0,2013-09-19 01:53:00
7:53 PM,61.0,48.0,62,30.03,10.0,Calm,Calm,-,N/A,,Clear,0,2013-09-19 02:53:00
8:53 PM,63.0,51.1,65,30.04,10.0,Calm,Calm,-,N/A,,Clear,0,2013-09-19 03:53:00
9:53 PM,59.0,50.0,72,30.04,10.0,Calm,Calm,-,N/A,,Clear,0,2013-09-19 04:53:00
10:53 PM,55.0,48.9,80,30.03,10.0,Calm,Calm,-,N/A,,Clear,0,2013-09-19 05:53:00
11:53 PM,55.9,50.0,80,30.02,10.0,Calm,Calm,-,N/A,,Clear,0,2013-09-19 06:53:00